Regional Weather Roundup
Issued by NWS Newport/Morehead, NC

Current Version | Previous Version | Text Only | Print | Product List | Glossary On
Versions: 1 2 3 4 5 6 7 8 9 10 11 12 13 14 15 16 17 18 19 20 21 22 23 24 25 26 27 28 29 30 31 32 33 34 35 36 37 38 39 40 41 42 43 44 45 46 47 48 49 50
530
ASUS42 KMHX 190925
RWRMHX
WEATHER ROUNDUP FOR EASTERN NORTH CAROLINA
NATIONAL WEATHER SERVICE NEWPORT/MOREHEAD CITY NC
500 AM EDT THU APR 19 2018

NOTE: "FAIR" INDICATES FEW OR NO CLOUDS BELOW 12,000 FEET
WITH NO SIGNIFICANT WEATHER AND/OR OBSTRUCTIONS TO VISIBILITY

NCZ015>017-031-032-045>047-102-103-191000-
NORTH COAST

CITY           SKY/WX    TMP DP  RH WIND       PRES   REMARKS
EDENTON        FAIR      68  55  62 SW8       29.68F
ELIZABETH CITY FAIR      65  54  67 SW14      29.65S
KITTY HAWK     FAIR      65  53  63 SW9G18    29.67S
MANTEO         FAIR      65  54  66 SW16      29.69S

$$

NCZ045>047-081-094-103-104-191000-
CENTRAL COAST

CITY           SKY/WX    TMP DP  RH WIND       PRES   REMARKS
FRISCO         FAIR      66  58  75 SW20G29   29.75F

$$

NCZ095-097-098-100-101-191000-
SOUTHERN COAST

CITY           SKY/WX    TMP DP  RH WIND       PRES   REMARKS
BEAUFORT       FAIR      64  56  75 SW20G28   29.78S
CEDAR ISLAND   NOT AVBL
JACKSONVILLE   FAIR      70  50  49 SW16G23   29.76S
PINEY ISLAND   NOT AVBL
WILMINGTON     FAIR      66  52  60 SW13      29.80S


$$

NCZ011>013-027>030-043-044-078>080-089-090>093-098-191000-
COASTAL PLAIN

CITY           SKY/WX    TMP DP  RH WIND       PRES   REMARKS
AHOSKIE        FAIR      62  49  64 CALM      29.66R
CLINTON        FAIR      68  53  58 SW9G16    29.75S
ELIZABETHTOWN  FAIR      68  50  51 MISG      29.78S
GOLDSBORO      FAIR      71  51  48 SW14      29.70R
GREENVILLE     FAIR      64  52  63 SW10      29.74R
HAVELOCK       NOT AVBL
KENANSVILLE    FAIR      68  50  52 SW10G16   29.75S
KINSTON        FAIR      67  51  57 SW12      29.73R
NEW BERN       FAIR      69  51  52 SW12G22   29.75S
RICHLANDS      FAIR      66  51  58 SW12      29.77S
ROCKY MOUNT    FAIR      67  50  54 S10       29.69S
WASHINGTON     FAIR      67  51  56 SW13G18   29.71S
WHITEVILLE     FAIR      69  50  50 SW10G17   29.80S

$$

AMZ130-135-150-152-154-156-158-170-250-252-270-ANZ085-086-088-633-658-670-191000-
MARINE OBSERVATIONS

STATION/POSITION TIME  TEMP    WIND        PRES    WAVE   SWELL
                       AIR SEA DIR/SP/G            HT/PER HT/PER
                 (UTC) (F)     (DEG/KT/KT) (MB)    (FT/S) (FT/S)
CHESAPEAKE LIGHT NOT AVBL
64 E VA BEACH    0850   57 50  210/ 21/ 27 1003.7    6/ 6   2/15
DUCK             0900   66 48  220/ 17/ 22 1003.9
2 E DUCK         0900      49                N/A     2/15   2/15
OREGON INLET     0900   63 62  200/ 19/ 22 1005.6
13E OREGON INLT  0848      52                N/A     5/ 5   2/14
HATTERAS CG      0900   65 63  230/ 16/ 24 1007.2
DIAMOND BUOY     0910   71 68  230/ 25/ 31 1008.4
CAPE LOOKOUT     0900          230/ 15/ 20 1008.9
BEAUFORT LAB     0900   63 62  230/  7/ 12 1008.6
30 SE NEW RVR IN 0908   68 66  220/ 19/ 27 1009.2
30 SE NEW RVR IN 0900      66                N/A     9/ 7
27 SE WRIGHTSVLE 0908   67 64  220/ 23/ 33 1010.1
5 SE WRIGHTSVLE  0908   64 60  230/ 16/ 21 1009.1
225 S CAPE HAT   0910   71 72  220/ 21/ 27 1015.2
41 SE CHARLESTON 0910   69 67  240/ 19/ 25 1013.3

$$




USA.gov is the U.S. government's official web portal to all federal, state and local government web resources and services.